Ely, NV

7:54 PM PDT on October 23, 2017 (GMT -0700)
Ely

Weather History for KELY - December, 2012

Change the Weather History Date:

Saturday, December 22, 2012

  Actual Average Record
Temperature  
Mean Temperature 31 °F 24 °F  
Max Temperature 38 °F 39 °F 56 °F (1955)
Min Temperature 24 °F 10 °F -29 °F (1990)
Degree Days  
Heating Degree Days 34 40  
Month to date heating degree days 766 866  
Since 1 July heating degree days 2188 2734  
Cooling Degree Days 0 0  
Month to date cooling degree days 0 0  
Year to date cooling degree days 314 218  
Moisture  
Dew Point 13 °F    
Average Humidity 48    
Maximum Humidity 63    
Minimum Humidity 32    
Precipitation  
Precipitation 0.00 in 0.02 in 0.45 in (2015)
Month to date precipitation 1.27 0.39  
Year to date precipitation 11.79 9.56  
Snow  
Snow 0.00 in 0.40 in 4.90 in (2010)
Month to date snowfall 15.8 5.4  
Since 1 July snowfall 25.8 14.9  
Snow Depth 8.00 in    
Sea Level Pressure  
Sea Level Pressure 29.97 in    
Wind  
Wind Speed 19 mph (South)    
Max Wind Speed 31 mph    
Max Gust Speed 40 mph    
Visibility 10 miles    
Events      
T = Trace of Precipitation, MM = Missing Value Source: NWS Daily Summary

Daily Weather History Graph

Daily Weather History Graph

Search for Another Location

Airport or City:

Trip Planner

Search our weather history database for the weather conditions in past years. The results will help you decide how hot, cold, wet, or windy it might be!

Date:

Astronomy

Dec. 22, 2012 Rise Set
Actual Time 6:56 AM PST 4:20 PM PST
Civil Twilight 6:26 AM PST 4:50 PM PST
Nautical Twilight 5:52 AM PST 5:24 PM PST
Astronomical Twilight 5:19 AM PST 5:56 PM PST
Moon 12:39 PM PST (12/22) 1:46 AM PST (12/22)
Length of Visible Light 10h 24m
Length of Day
9h 24m
Waxing Gibbous, 74% of the Moon is Illuminated
Dec 22
Waxing Gibbous
Dec 28
Full
Jan 4
Last Quarter
Jan 11
New
Jan 18
First Quarter

Hourly Weather History & Observations

Time (PST) Temp. Windchill Dew Point Humidity Pressure Visibility Wind Dir Wind Speed Gust Speed Precip Events Conditions
12:53 AM 24.8 °F 12.4 °F 8.6 °F 50% 30.04 in 10.0 mi SSW 15.0 mph - N/A   Clear
1:53 AM 25.0 °F 10.9 °F 8.1 °F 49% 30.05 in 10.0 mi SSW 19.6 mph - N/A   Clear
2:53 AM 26.1 °F 12.0 °F 8.1 °F 47% 30.03 in 10.0 mi SSW 20.7 mph 29.9 mph N/A   Clear
3:53 AM 26.6 °F 11.7 °F 6.8 °F 43% 30.00 in 10.0 mi SSW 24.2 mph - N/A   Clear
4:53 AM 24.1 °F 9.4 °F 7.0 °F 48% 30.03 in 10.0 mi SSW 20.7 mph - N/A   Clear
5:53 AM 25.0 °F 10.9 °F 9.0 °F 51% 30.02 in 10.0 mi South 19.6 mph - N/A   Clear
6:53 AM 27.0 °F 14.3 °F 8.1 °F 45% 30.02 in 10.0 mi SSW 17.3 mph - N/A   Clear
7:53 AM 26.1 °F 14.5 °F 9.0 °F 49% 30.02 in 10.0 mi South 13.8 mph - N/A   Clear
8:53 AM 30.0 °F 18.3 °F 10.9 °F 45% 29.99 in 10.0 mi South 17.3 mph - N/A   Clear
9:53 AM 34.0 °F 23.0 °F 12.0 °F 40% 29.98 in 10.0 mi South 18.4 mph - N/A   Clear
10:53 AM 37.0 °F 25.9 °F 10.9 °F 34% 29.94 in 10.0 mi SE 23.0 mph 34.5 mph N/A   Clear
11:53 AM 37.0 °F 26.2 °F 14.0 °F 39% 29.91 in 10.0 mi SSE 21.9 mph 31.1 mph N/A   Clear
12:53 PM 37.0 °F 27.0 °F 16.0 °F 42% 29.88 in 10.0 mi South 18.4 mph 23.0 mph N/A   Clear
1:53 PM 37.0 °F 24.7 °F 15.1 °F 41% 29.87 in 10.0 mi SSE 28.8 mph 36.8 mph N/A   Clear
2:53 PM 35.1 °F 25.5 °F 15.1 °F 44% 29.87 in 10.0 mi South 15.0 mph - N/A   Clear
3:53 PM 30.9 °F 18.7 °F 15.1 °F 52% 29.89 in 10.0 mi SSE 19.6 mph - N/A   Clear
4:53 PM 30.0 °F 17.9 °F 15.1 °F 54% 29.93 in 10.0 mi SSE 18.4 mph - N/A   Clear
5:53 PM 30.9 °F 18.1 °F 14.0 °F 50% 29.94 in 10.0 mi SE 21.9 mph 28.8 mph N/A   Scattered Clouds
6:53 PM 30.0 °F 17.9 °F 15.1 °F 54% 29.94 in 10.0 mi SSE 18.4 mph 26.5 mph N/A   Clear
7:53 PM 32.0 °F 19.8 °F 16.0 °F 52% 29.96 in 10.0 mi South 20.7 mph 26.5 mph N/A   Overcast
8:53 PM 30.9 °F 20.7 °F 18.0 °F 59% 29.96 in 10.0 mi South 13.8 mph 21.9 mph N/A   Overcast
9:53 PM 30.0 °F 18.7 °F 17.1 °F 59% 29.98 in 10.0 mi South 16.1 mph - N/A   Overcast
10:53 PM 28.0 °F 16.5 °F 18.0 °F 66% 29.98 in 10.0 mi SSE 15.0 mph - N/A   Scattered Clouds
11:53 PM 26.1 °F 14.0 °F 17.1 °F 69% 29.99 in 10.0 mi South 15.0 mph - N/A   Clear